User: anonymous   Login
Location: Unspecified
(0.0000°N, 0.0000°E)
Time: 19:56:35
(UTC+00:00)
Language:

USA 247 - Orbit

View from above orbital plane
View from above orbital plane
View from above satellite
View from above satellite

Ground track
Ground track

The orbit data is extracted from the following two-line orbital elements,

1 39462U 13072A   17056.10513471 0.00000000  00000-0  00000-0 0    01
2 39462 122.9997 277.5183 0006000 119.6509 240.3491 13.41414231    02
Epoch (UTC): 25 February 2017 02:31:23
Eccentricity: 0.0006000
inclination: 122.9997°
perigee height: 1099 km
apogee height: 1108 km
right ascension of ascending node: 277.5183°
argument of perigee: 119.6509°
revolutions per day: 13.41414231
mean anomaly at epoch: 240.3491°
orbit number at epoch: 0

The dashed part of the orbit path shows where the satellite is in the earth's shadow,  

DLR